IRIDIUM 106 1 41917U 17003A 24289.59769920 .00000634 00000-0 21933-3 0 9999 2 41917 86.4000 343.2850 0002579 95.3266 264.8224 14.34224017405837 IRIDIUM 103 1 41918U 17003B 24288.67803279 .00000324 00000-0 10863-3 0 9990 2 41918 86.4001 343.5704 0002194 110.8111 249.3320 14.34216684405729 IRIDIUM 109 1 41919U 17003C 24288.54483793 .00000488 00000-0 16714-3 0 9994 2 41919 86.4003 343.6756 0001798 99.1957 260.9442 14.34217940405670 IRIDIUM 102 1 41920U 17003D 24289.55965321 .00000048 00000-0 10190-4 0 9995 2 41920 86.3986 343.1862 0002001 82.8234 277.3189 14.34217650405903 IRIDIUM 105 1 41921U 17003E 24289.66993794 .00000141 00000-0 43203-4 0 9998 2 41921 86.3941 311.5763 0002330 94.9056 265.2406 14.34214871407772 IRIDIUM 104 1 41922U 17003F 24289.22349931 .00000620 00000-0 21426-3 0 9993 2 41922 86.4006 343.3629 0002168 109.5833 250.5597 14.34211205405847 IRIDIUM 114 1 41923U 17003G 24289.09030503 .00000797 00000-0 27750-3 0 9992 2 41923 86.4000 343.4028 0002340 99.1212 261.0249 14.34220191405804 IRIDIUM 108 1 41924U 17003H 24289.81627021 .00000491 00000-0 16836-3 0 9994 2 41924 86.3936 311.4318 0002432 90.3566 269.7908 14.34222350407769 IRIDIUM 112 1 41925U 17003J 24289.91485038 .00000181 00000-0 57653-4 0 9995 2 41925 86.3994 342.9284 0001820 95.8900 264.2504 14.34211484405943 IRIDIUM 111 1 41926U 17003K 24289.06493086 .00000278 00000-0 92322-4 0 9993 2 41926 86.3999 343.3406 0002023 95.4387 264.7040 14.34218716405801 IRIDIUM 113 1 42803U 17039A 24289.53327996 -.00001106 00000-0 -40200-3 0 9995 2 42803 86.4018 216.8857 0001923 81.1421 278.9993 14.34208462383808 IRIDIUM 123 1 42804U 17039B 24289.92359553 -.00000071 00000-0 -32535-4 0 9996 2 42804 86.3948 248.1920 0002393 90.0442 270.1028 14.34214714382622 IRIDIUM 120 1 42805U 17039C 24289.24785513 .00000598 00000-0 20647-3 0 9993 2 42805 86.4007 216.8661 0002341 79.8370 280.3090 14.34221321383751 IRIDIUM 115 1 42806U 17039D 24289.90848401 .00001241 00000-0 36276-3 0 9994 2 42806 86.4548 216.6328 0002196 89.5174 270.6278 14.43289821386389 IRIDIUM 118 1 42807U 17039E 24289.81577912 .00000800 00000-0 27842-3 0 9990 2 42807 86.3948 248.2379 0002271 83.6391 276.5063 14.34216760382600 IRIDIUM 117 1 42808U 17039F 24289.41619616 -.00000541 00000-0 -20043-3 0 9995 2 42808 86.3949 248.3689 0002347 87.5079 272.6385 14.34211473382584 IRIDIUM 126 1 42809U 17039G 24289.79040125 .00000692 00000-0 24014-3 0 9997 2 42809 86.3949 248.2531 0002127 93.5360 266.6079 14.34215323382600 IRIDIUM 124 1 42810U 17039H 24289.63430171 .00001258 00000-0 36805-3 0 9996 2 42810 86.4563 185.1403 0002695 78.6153 281.5350 14.43282760387192 IRIDIUM 128 1 42811U 17039J 24289.92067980 -.00000522 00000-0 -19366-3 0 9991 2 42811 86.3906 279.7432 0002251 91.6877 268.4577 14.34215229382658 IRIDIUM 121 1 42812U 17039K 24289.60013183 .00000301 00000-0 10028-3 0 9992 2 42812 86.3948 248.3562 0002200 85.9867 274.1580 14.34210648382456 IRIDIUM 133 1 42955U 17061A 24289.81285557 .00000213 00000-0 68942-4 0 9995 2 42955 86.3907 279.8913 0002209 88.5386 271.6063 14.34215392367432 IRIDIUM 100 1 42956U 17061B 24289.38789727 .00000384 00000-0 13013-3 0 9993 2 42956 86.3907 280.0020 0002368 91.5674 268.5793 14.34220905367370 IRIDIUM 122 1 42957U 17061C 24289.00734460 .00000232 00000-0 75885-4 0 9995 2 42957 86.3906 280.1598 0002275 95.3064 264.8391 14.34219006367321 IRIDIUM 129 1 42958U 17061D 24289.73040534 -.00000007 00000-0 -94233-5 0 9999 2 42958 86.3908 279.9178 0001921 91.0408 269.1008 14.34215267367447 IRIDIUM 119 1 42959U 17061E 24289.69868962 .00000284 00000-0 94183-4 0 9996 2 42959 86.3909 279.9238 0002331 99.3956 260.7504 14.34218652367451 IRIDIUM 107 1 42960U 17061F 24289.92702509 .00000375 00000-0 12669-3 0 9997 2 42960 86.3907 279.8457 0002415 97.0601 263.0870 14.34216945367497 IRIDIUM 132 1 42961U 17061G 24289.93336561 .00000063 00000-0 15580-4 0 9990 2 42961 86.3907 279.8271 0002592 95.0339 265.1153 14.34215146367493 IRIDIUM 136 1 42962U 17061H 24289.68600164 -.00000301 00000-0 -11458-3 0 9992 2 42962 86.3909 279.9342 0002066 92.4088 267.7344 14.34216378367470 IRIDIUM 139 1 42963U 17061J 24289.69234689 .00000328 00000-0 11015-3 0 9995 2 42963 86.3911 279.9837 0002522 95.7824 264.3660 14.34219031367488 IRIDIUM 125 1 42964U 17061K 24289.67966180 .00000192 00000-0 61531-4 0 9990 2 42964 86.3910 280.0391 0002225 105.0545 255.0898 14.34215772367490